{"data":{"norad_id":46335,"epoch":"2026-05-29T15:08:40.834752Z","epoch_age_seconds":9860211,"freshness":"OLD","line1":"1 46335U 20062L   26149.63102818  .07991487  12384-4  72448-3 0  9997","line2":"2 46335  53.0163 286.5342 0012331 296.0215  63.9560 16.37874951317726","mean_motion":16.37874951,"eccentricity":0.0012331,"inclination_deg":53.0163,"raan_deg":286.5342,"arg_perigee_deg":296.0215,"mean_anomaly_deg":63.956,"bstar":0.00072448,"rev_number":31772,"period_min":87.918799852261,"perigee_km":163.38523096038,"apogee_km":179.537850882,"semimajor_km":6549.5985409212,"source":"CELESTRAK","updated_at":"2026-05-30T09:00:35.015984Z"}}